Miscellaneous Local Product
Issued by NWS North Platte, NE

Home | Current Version | Previous Version | Graphics & Text | Print | Product List | Glossary On
Versions: 1 2 3 4 5 6 7 8 9 10 11 12 13 14 15 16 17 18 19 20 21 22 23 24 25 26 27 28 29 30 31 32 33 34 35 36 37 38 39 40 41 42 43 44 45 46 47 48 49 50
000
AXUS43 KLBF 270110
MISLBF


WESTERN AND NORTH CENTRAL NEBRASKA HOURLY WEATHER ROUNDUP
NATIONAL WEATHER SERVICE NORTH PLATTE NE
800 PM CDT FRI AUG 26 2016

NOTE: "FAIR" INDICATES FEW OR NO CLOUDS BELOW 12,000 FEET WITH NO
SIGNIFICANT WEATHER AND/OR OBSTRUCTIONS TO VISIBILITY.

NOTE: STATIONS NOT REPORTING VARIABLES SUCH AS SKY/WEATHER OR
PRESSURE ARE PROVIDED BY RAWS AND APRS NETWORKS AND ARE NOT UNDER
NATIONAL WEATHER SERVICE QUALITY CONTROL.

...OBSERVATIONS IN AND NEAR THE EASTERN PANHANDLE OF NEBRASKA...

CITY           SKY/WX    TMP DP  RH WIND       PRES   REMARKS
PINE RIDGE     CLOUDY    68  54  60 S13G18    30.01S
CHADRON        CLOUDY    70  52  52 S15       29.99S
ALLIANCE       CLOUDY    63  54  72 SE12      30.05S
SIDNEY         CLOUDY    60  55  83 E15       30.05F
CRESCENT LAKE    N/A     61  56  83 MISG        N/A
$$

...OBSERVATIONS IN NORTHERN NEBRASKA AND FAR SOUTHERN SOUTH DAKOTA...

CITY           SKY/WX    TMP DP  RH WIND       PRES   REMARKS
WINNER         FAIR      66  59  78 E5        30.02S
VALENTINE      CLOUDY    63  57  81 SE6       30.04S
THEDFORD       CLOUDY    62  59  92 CALM      30.05F
AINSWORTH      PTCLDY    65  56  72 SE8       30.03F
O`NEILL        MOCLDY    69  57  65 E8        30.04F
ORD            LGT RAIN  68  57  68 E6        30.02F
BROKEN BOW     CLOUDY    65  58  78 E8        30.03F
VALENTINE NWR    N/A     62  59  90 SE6         N/A
BUTTE            N/A     68  55  63 SE12        N/A
HALSEY           N/A     62  60  94 CALM        N/A
EWING            N/A     65  61  87 CALM        N/A
$$

...OBSERVATIONS IN SOUTHWEST NEBRASKA AND FAR NORTHEAST COLORADO...

CITY           SKY/WX    TMP DP  RH WIND       PRES   REMARKS
WRAY           FAIR      61  52  72 E7        30.09R
HOLYOKE        MOCLDY    61  55  82 E5        30.09R
IMPERIAL       CLOUDY    61  58  90 E5        30.06R
OGALLALA       CLOUDY    62  57  85 CALM      30.07S
NORTH PLATTE   CLOUDY    62  59  90 SE16      30.00F
MCCOOK         CLOUDY    64  60  87 N24       30.07R
LEXINGTON      CLOUDY    67  63  88 S3        30.06R
STAPLETON        N/A     60  58  92 CALM        N/A
GOTHENBURG       N/A     66  57  73 CALM        N/A
CALLAWAY         N/A     66  60  80 SE5         N/A
$$

...OBSERVATIONS IN CENTRAL LINCOLN COUNTY AREA...

CITY           SKY/WX    TMP DP  RH WIND       PRES   REMARKS
N.P. AIRPORT   CLOUDY    62  59  90 SE16      30.00F
N.P. DOWNTOWN    N/A     61  59  92 NW3         N/A
N.P. SOUTHEAST   N/A     61  59  92 N3          N/A
N.P. HILLCREST   N/A     62  58  88 NE5         N/A
$$

...SOME OBSERVATIONS FROM AROUND THE REGION...

CITY           SKY/WX    TMP DP  RH WIND       PRES   REMARKS
DENVER         CLOUDY    75  36  24 CALM      30.07S
LARAMIE        CLOUDY    62  32  32 W16G30    30.15R
CHEYENNE       CLOUDY    59  47  64 E10       30.12R
SCOTTSBLUFF    PTCLDY    66  54  65 SE13      30.03F
RAPID CITY     LGT RAIN  60  56  86 NE8       30.03R
BISMARCK       PTCLDY    65  52  62 S14       30.00S
PIERRE         CLOUDY    65  54  67 E7        30.02S
SIOUX FALLS    CLOUDY    69  59  70 E12       30.07F
OMAHA          CLOUDY    69  63  81 E9        30.04R
GRAND ISLAND   CLOUDY    66  62  87 E8        30.05S
KANSAS CITY    CLOUDY    70  68  93 N7        30.00R THUNDER
WICHITA        PTCLDY    80  67  64 SE5       29.99R
OKLAHOMA CITY  LGT RAIN  76  67  73 SE8       30.03R
DALLAS         CLOUDY    81  68  64 SE9       29.98F
AMARILLO       CLEAR     77  59  53 S13       30.05F
DODGE CITY     CLEAR     73  64  73 SE6       30.02R
HAYS           CLEAR     73  61  64 E8        30.01R
GOODLAND       CLOUDY    64  55  72 NE12      30.06R
$$




USA.gov is the U.S. government's official web portal to all federal, state and local government web resources and services.